TimeCAT,TemperatureF,Dew PointF,Humidity,Sea Level PressureIn,VisibilityMPH,Wind Direction,Wind SpeedMPH,Gust SpeedMPH,PrecipitationIn,Events,Conditions,WindDirDegrees,DateUTC
12:00 AM,51.8,48.2,88,30.27,-9999.0,East,4.6,-,N/A,,Clear,90,2013-04-27 22:00:00
2:00 AM,50,48,89,,19,ESE,5.8,,,,,110,2013-04-28 00:00:00
5:00 AM,48.2,46.4,93,30.24,-9999.0,East,4.6,-,N/A,,Clear,90,2013-04-28 03:00:00
6:00 AM,46.4,46.4,100,30.24,-9999.0,East,4.6,-,N/A,,Clear,100,2013-04-28 04:00:00
7:00 AM,51.8,50.0,94,30.27,-9999.0,East,4.6,-,N/A,,Clear,100,2013-04-28 05:00:00
8:00 AM,56,51,80,,19,ESE,6.9,,,,,110,2013-04-28 06:00:00
8:00 AM,57.2,51.8,82,30.30,-9999.0,ESE,6.9,-,N/A,,Clear,110,2013-04-28 06:00:00
9:00 AM,62.6,50.0,63,30.30,-9999.0,ESE,6.9,-,N/A,,Clear,120,2013-04-28 07:00:00
10:00 AM,64.4,48.2,56,30.30,6.2,SSE,4.6,-,N/A,,Partly Cloudy,160,2013-04-28 08:00:00
11:00 AM,68.0,48.2,49,30.30,6.2,SW,3.5,-,N/A,,Partly Cloudy,220,2013-04-28 09:00:00
12:00 PM,69.8,46.4,43,30.27,-9999.0,NW,3.5,-,N/A,,Clear,320,2013-04-28 10:00:00
1:00 PM,71.6,44.6,38,30.24,-9999.0,South,4.6,-,N/A,,Clear,190,2013-04-28 11:00:00
2:00 PM,73,45,26,,22,SSW,5.8,,,,Scattered Clouds,200,2013-04-28 12:00:00
2:00 PM,73.4,44.6,36,30.21,-9999.0,SSW,5.8,-,N/A,,Clear,200,2013-04-28 12:00:00
3:00 PM,75.2,44.6,34,30.21,-9999.0,SSW,4.6,-,N/A,,Clear,200,2013-04-28 13:00:00
4:00 PM,75.2,42.8,31,30.21,-9999.0,SE,2.3,-,N/A,,Clear,130,2013-04-28 14:00:00
5:00 PM,71.6,42.8,35,30.21,-9999.0,East,6.9,-,N/A,,Clear,80,2013-04-28 15:00:00
6:00 PM,66.2,44.6,46,30.21,-9999.0,NE,5.8,-,N/A,,Clear,50,2013-04-28 16:00:00
7:00 PM,60.8,44.6,55,30.24,-9999.0,ENE,5.8,-,N/A,,Clear,60,2013-04-28 17:00:00
8:00 PM,59,46,52,,22,SSE,5.8,,,,,160,2013-04-28 18:00:00
9:00 PM,57.2,46.4,67,30.27,-9999.0,ESE,4.6,-,N/A,,Clear,110,2013-04-28 19:00:00
10:00 PM,55.4,48.2,77,30.27,-9999.0,East,5.8,-,N/A,,Clear,100,2013-04-28 20:00:00
11:00 PM,55.4,48.2,77,30.27,-9999.0,East,6.9,-,N/A,,Clear,80,2013-04-28 21:00:00